Kake, AK

9:19 AM AKDT on July 20, 2017 (GMT -0800)
Kake

Weather History for PAFE - April, 2013

Change the Weather History Date:

Friday, April 12, 2013

  Actual Average Record
Temperature  
Mean Temperature 39 °F -  
Max Temperature 46 °F 44 °F 60 °F (2017)
Min Temperature 30 °F 32 °F 28 °F (1998)
Degree Days  
Heating Degree Days 26    
Moisture  
Dew Point 27 °F    
Average Humidity 65    
Maximum Humidity 87    
Minimum Humidity 46    
Precipitation  
Precipitation 0.00 in - - ()
Sea Level Pressure  
Sea Level Pressure 29.62 in    
Wind  
Wind Speed 11 mph (NE)    
Max Wind Speed 17 mph    
Max Gust Speed 25 mph    
Visibility 10 miles    
Events      
Averages and records for this station are not official NWS values.
T = Trace of Precipitation, MM = Missing Value Source: NWS Daily Summary

Daily Weather History Graph

Daily Weather History Graph

Search for Another Location

Airport or City:

Trip Planner

Search our weather history database for the weather conditions in past years. The results will help you decide how hot, cold, wet, or windy it might be!

Date:

Astronomy

Apr. 12, 2013 Rise Set
Actual Time 5:54 AM AKDT 7:59 PM AKDT
Civil Twilight 5:13 AM AKDT 8:40 PM AKDT
Nautical Twilight 4:21 AM AKDT 9:33 PM AKDT
Astronomical Twilight 3:18 AM AKDT 10:36 PM AKDT
Moon 6:42 AM AKDT (4/12) 11:09 PM AKDT (4/12)
Length of Visible Light 15h 27m
Length of Day
14h 05m
Waxing Crescent, 6% of the Moon is Illuminated
Apr 12
Waxing Crescent
Apr 18
First Quarter
Apr 25
Full
May 2
Last Quarter
May 9
New

Hourly Weather History & Observations

Time (AKDT) Temp. Windchill Dew Point Humidity Pressure Visibility Wind Dir Wind Speed Gust Speed Precip Events Conditions
12:16 AM 33.8 °F 23.9 °F 28.4 °F 81% 29.78 in 10.0 mi East 15.0 mph 21.9 mph N/A   Overcast
12:36 AM 33.8 °F 24.8 °F 30.2 °F 87% 29.77 in 10.0 mi East 12.7 mph 20.7 mph N/A   Overcast
1:16 AM 33.8 °F 25.8 °F 28.4 °F 81% 29.73 in 10.0 mi East 10.4 mph 19.6 mph N/A   Overcast
1:36 AM 33.8 °F 24.3 °F 28.4 °F 81% 29.71 in 10.0 mi ESE 13.8 mph 19.6 mph N/A   Overcast
1:56 AM 35.6 °F 27.5 °F 28.4 °F 75% 29.70 in 10.0 mi ESE 11.5 mph 19.6 mph N/A   Overcast
2:16 AM 35.6 °F 26.6 °F 28.4 °F 75% 29.68 in 10.0 mi East 13.8 mph 20.7 mph N/A   Overcast
2:36 AM 35.6 °F 25.5 °F 28.4 °F 75% 29.66 in 10.0 mi East 17.3 mph 23.0 mph N/A   Overcast
2:56 AM 35.6 °F 25.9 °F 28.4 °F 75% 29.65 in 10.0 mi East 16.1 mph 24.2 mph N/A   Overcast
3:16 AM 35.6 °F 28.0 °F 28.4 °F 75% 29.63 in 10.0 mi East 10.4 mph 25.3 mph N/A   Overcast
3:36 AM 35.6 °F 26.6 °F 28.4 °F 75% 29.61 in 10.0 mi East 13.8 mph 23.0 mph N/A   Overcast
3:56 AM 35.6 °F 26.6 °F 28.4 °F 75% 29.60 in 10.0 mi East 13.8 mph 21.9 mph N/A   Overcast
4:16 AM 35.6 °F 26.2 °F 28.4 °F 75% 29.59 in 10.0 mi East 15.0 mph 21.9 mph N/A   Overcast
4:36 AM 35.6 °F 27.1 °F 28.4 °F 75% 29.58 in 10.0 mi East 12.7 mph 19.6 mph N/A   Overcast
4:56 AM 35.6 °F 26.2 °F 26.6 °F 70% 29.57 in 10.0 mi East 15.0 mph 24.2 mph N/A   Overcast
5:16 AM 35.6 °F 27.5 °F 28.4 °F 75% 29.57 in 8.0 mi East 11.5 mph 20.7 mph N/A   Overcast
5:36 AM 33.8 °F 25.3 °F 28.4 °F 81% 29.56 in 7.0 mi East 11.5 mph 17.3 mph N/A   Overcast
5:56 AM 35.6 °F 26.6 °F 28.4 °F 75% 29.55 in 10.0 mi ENE 13.8 mph 23.0 mph N/A   Overcast
6:16 AM 35.6 °F 29.2 °F 28.4 °F 75% 29.54 in 10.0 mi ENE 8.1 mph 21.9 mph N/A   Overcast
6:56 AM 35.6 °F 26.6 °F 28.4 °F 75% 29.52 in 10.0 mi ENE 13.8 mph 21.9 mph N/A   Overcast
7:16 AM 35.6 °F 27.5 °F 28.4 °F 75% 29.52 in 10.0 mi ENE 11.5 mph 23.0 mph N/A   Overcast
7:36 AM 35.6 °F 28.6 °F 28.4 °F 75% 29.51 in 10.0 mi ENE 9.2 mph 20.7 mph N/A   Overcast
7:56 AM 35.6 °F 26.2 °F 28.4 °F 75% 29.51 in 10.0 mi NE 15.0 mph 21.9 mph N/A   Overcast
8:16 AM 35.6 °F 27.1 °F 28.4 °F 75% 29.51 in 9.0 mi NE 12.7 mph 25.3 mph N/A   Overcast
8:36 AM 35.6 °F 28.0 °F 30.2 °F 81% 29.51 in 9.0 mi NE 10.4 mph 19.6 mph N/A   Overcast
8:56 AM 35.6 °F 27.5 °F 30.2 °F 81% 29.50 in 10.0 mi NE 11.5 mph 21.9 mph N/A   Overcast
9:16 AM 35.6 °F 27.1 °F 30.2 °F 81% 29.50 in 10.0 mi NE 12.7 mph 20.7 mph N/A   Overcast
9:36 AM 35.6 °F 27.1 °F 30.2 °F 81% 29.51 in 10.0 mi NNE 12.7 mph 23.0 mph N/A   Overcast
9:56 AM 35.6 °F 27.1 °F 28.4 °F 75% 29.51 in 10.0 mi NE 12.7 mph 18.4 mph N/A   Overcast
10:16 AM 37.4 °F 31.4 °F 28.4 °F 70% 29.52 in 10.0 mi NE 8.1 mph - N/A   Overcast
10:36 AM 37.4 °F 32.1 °F 28.4 °F 70% 29.52 in 10.0 mi NE 6.9 mph 16.1 mph N/A   Overcast
10:56 AM 39.2 °F 32.5 °F 28.4 °F 65% 29.53 in 10.0 mi NE 10.4 mph 19.6 mph N/A   Overcast
11:16 AM 39.2 °F 33.0 °F 28.4 °F 65% 29.53 in 10.0 mi NE 9.2 mph 17.3 mph N/A   Overcast
11:36 AM 39.2 °F 32.5 °F 28.4 °F 65% 29.53 in 10.0 mi NE 10.4 mph 16.1 mph N/A   Overcast
11:56 AM 39.2 °F 33.6 °F 28.4 °F 65% 29.54 in 10.0 mi NE 8.1 mph - N/A   Overcast
12:16 PM 41.0 °F 35.2 °F 28.4 °F 61% 29.54 in 10.0 mi NNE 9.2 mph - N/A   Overcast
12:36 PM 41.0 °F 35.8 °F 28.4 °F 61% 29.55 in 10.0 mi NNE 8.1 mph - N/A   Overcast
12:56 PM 42.8 °F 39.3 °F 28.4 °F 57% 29.56 in 10.0 mi ENE 5.8 mph 17.3 mph N/A   Overcast
1:16 PM 42.8 °F 37.0 °F 26.6 °F 53% 29.57 in 10.0 mi NE 10.4 mph - N/A   Overcast
1:36 PM 42.8 °F 38.0 °F 26.6 °F 53% 29.58 in 10.0 mi NE 8.1 mph - N/A   Overcast
1:56 PM 41.0 °F 36.4 °F 26.6 °F 57% 29.58 in 10.0 mi ENE 6.9 mph - N/A   Overcast
2:16 PM 42.8 °F 39.3 °F 26.6 °F 53% 29.58 in 10.0 mi North 5.8 mph - N/A   Overcast
2:36 PM 42.8 °F 37.5 °F 24.8 °F 49% 29.58 in 10.0 mi NNW 9.2 mph - N/A   Overcast
2:56 PM 42.8 °F 38.6 °F 26.6 °F 53% 29.59 in 10.0 mi North 6.9 mph - N/A   Overcast
3:16 PM 44.6 °F 38.1 °F 26.6 °F 49% 29.59 in 10.0 mi NNW 13.8 mph 19.6 mph N/A   Overcast
3:36 PM 44.6 °F 38.4 °F 26.6 °F 49% 29.59 in 10.0 mi NNW 12.7 mph 19.6 mph N/A   Mostly Cloudy
3:56 PM 46.4 °F 41.5 °F 26.6 °F 46% 29.60 in 10.0 mi North 10.4 mph 17.3 mph N/A   Scattered Clouds
4:16 PM 46.4 °F 42.4 °F 26.6 °F 46% 29.60 in 10.0 mi North 8.1 mph - N/A   Mostly Cloudy
4:36 PM 44.6 °F 39.2 °F 26.6 °F 49% 29.61 in 10.0 mi NNW 10.4 mph 18.4 mph N/A   Mostly Cloudy
4:56 PM 44.6 °F 40.2 °F 28.4 °F 53% 29.62 in 10.0 mi NNW 8.1 mph - N/A   Partly Cloudy
5:16 PM 46.4 °F 41.5 °F 28.4 °F 50% 29.62 in 10.0 mi NNE 10.4 mph - N/A   Clear
5:36 PM 44.6 °F 38.1 °F 30.2 °F 57% 29.63 in 10.0 mi North 13.8 mph - N/A   Clear
5:56 PM 44.6 °F 39.7 °F 30.2 °F 57% 29.64 in 10.0 mi North 9.2 mph - N/A   Clear
6:16 PM 44.6 °F 39.2 °F 26.6 °F 49% 29.65 in 10.0 mi NNW 10.4 mph - N/A   Clear
6:36 PM 44.6 °F 41.4 °F 26.6 °F 49% 29.65 in 10.0 mi NW 5.8 mph - N/A   Clear
6:56 PM 44.6 °F 40.2 °F 26.6 °F 49% 29.66 in 10.0 mi North 8.1 mph - N/A   Clear
7:16 PM 42.8 °F 40.1 °F 24.8 °F 49% 29.67 in 10.0 mi NNW 4.6 mph - N/A   Clear
7:36 PM 42.8 °F 41.1 °F 24.8 °F 49% 29.68 in 10.0 mi NNW 3.5 mph - N/A   Clear
7:56 PM 42.8 °F - 24.8 °F 49% 29.69 in 10.0 mi Calm Calm - N/A   Clear
8:16 PM 41.0 °F - 23.0 °F 49% 29.70 in 10.0 mi Calm Calm - N/A   Clear
8:36 PM 39.2 °F - 24.8 °F 56% 29.71 in 10.0 mi Calm Calm - N/A   Clear
8:56 PM 39.2 °F - 23.0 °F 52% 29.72 in 10.0 mi Calm Calm - N/A   Clear
9:36 PM 39.2 °F - 23.0 °F 52% 29.73 in 10.0 mi Calm Calm - N/A   Clear
9:56 PM 37.4 °F - 21.2 °F 52% 29.74 in 10.0 mi Calm Calm - N/A   Clear
10:16 PM 35.6 °F - 23.0 °F 60% 29.75 in 10.0 mi Calm Calm - N/A   Clear
10:36 PM 33.8 °F 30.8 °F 21.2 °F 60% 29.76 in 10.0 mi NE 3.5 mph - N/A   Clear
10:56 PM 33.8 °F 29.6 °F 23.0 °F 65% 29.77 in 10.0 mi NE 4.6 mph - N/A   Clear
11:16 PM 33.8 °F - 23.0 °F 65% 29.78 in 10.0 mi Calm Calm - N/A   Clear
11:36 PM 32.0 °F 28.7 °F 23.0 °F 69% 29.79 in 10.0 mi ENE 3.5 mph - N/A   Clear
11:56 PM 30.2 °F 24.3 °F 23.0 °F 75% 29.80 in 10.0 mi ENE 5.8 mph - N/A   Clear